Pos.Doss.NomPrenomTempsVit.Moy.Allure Pos. cat�gCat�gorie Points Club
1 4551 LOUIS FRANOIS 00:21:43 13.81 00:04:21 ? FORT AVENTURE
2 4555 GRGOIRE EMILIEN 00:22:41 13.23 00:04:32 ?
3 404 KERCKHOVE LUCA 00:22:42 13.22 00:04:32 1Garconss 12 � 15 ans 1000 RFCL ATHLETISME
4 4009 SIQVEIRA BRAGA FREITAS MICHELE 00:22:49 13.15 00:04:34 ?
5 4031 HORMA YASSINE 00:23:23 12.83 00:04:41 ?
6 4020 LALLEMAND ETIENNE 00:23:27 12.79 00:04:41 ?
7 83 GUISSART CLMENT 00:23:42 12.66 00:04:44 2Garconss 12 � 15 ans 978 PAS DE CLUB
8 57 UELLENDAHL BENITO 00:24:04 12.47 00:04:49 3Garconss 12 � 15 ans 956 SC BTGENBACH/ AC EIFEL/ HAUTES FAGNES
9 71 DEBATTY OLIVIA 00:24:15 12.37 00:04:51 1Filles 12 � 15 ans 933 SERAING ATHLETISME
10 4025 COP LOUIS 00:24:56 12.03 00:04:59 ?
11 4559 DRION ETIENNE 00:24:56 12.03 00:04:59 ?
12 4007 PEETERS JULIE 00:25:11 11.91 00:05:02 ?
13 4002 KEBRON EMILIE 00:25:28 11.78 00:05:06 ? RFCL
14 4000 CARDILLO JOACHIM 00:25:29 11.77 00:05:06 ?
15 4549 MOUREAU VALENTIN 00:25:44 11.66 00:05:09 4Garconss 12 � 15 ans 911
16 4545 WILWERTH JEAN-PHILIPPE 00:26:00 11.54 00:05:12 ?
17 4556 GLOUDEN THOMAS 00:26:00 11.54 00:05:12 ?
18 48 COP THEO 00:26:26 11.35 00:05:17 ? PAS DE CLUB
19 47 COP THOMAS 00:26:53 11.16 00:05:23 ? PAS DE CLUB
20 199 MAHY ALEX 00:28:03 10.7 00:05:37 5Garconss 12 � 15 ans 889
21 4012 DEWIL JEAN 00:28:07 10.67 00:05:37 ? JIA
22 4547 STAS ZO 00:28:13 10.63 00:05:39 ?
23 4817 BECKERS SERGE 00:28:22 10.58 00:05:40 ? PAS DE CLUB
24 4024 BRICMAAN ROLAND 00:28:53 10.39 00:05:47 ?
25 4021 LAJEUNE GARY 00:29:20 10.23 00:05:52 ?
26 4557 GABER FLORENCE 00:30:08 9.96 00:06:02 ?
27 4003 CIOPPA FRANCO 00:30:47 9.75 00:06:09 ?
28 4005 VANHOVE MARIELLE 00:30:52 9.72 00:06:10 ?
29 4013 HOMBURG SHAWA 00:31:28 9.53 00:06:18 ?
30 1713 ZALESKI ARTHUR 00:31:29 9.53 00:06:18 ?
31 4022 MILLION GABRIEL 00:31:39 9.48 00:06:20 ?
32 4558 CYRIS PAULINE 00:31:44 9.45 00:06:21 ?
33 4027 AGIRMAN SERDAR 00:31:47 9.44 00:06:21 ? GNT-4030
34 4008 ROUHA FABRICE 00:31:49 9.43 00:06:22 ?
35 4016 LE VAN ALEX 00:31:58 9.38 00:06:24 ?
36 51 HU LIN 00:34:05 8.8 00:06:49 ? JCPMF ROCOURT
37 4001 RENWAMT JOSEPH 00:34:38 8.66 00:06:56 ?
38 4015 COLLIGNO MARIE 00:34:40 8.65 00:06:56 ?
39 4014 LAMBERT JOACHIM 00:34:40 8.65 00:06:56 ?
40 4548 PETITJEAN CATHERINE 00:34:53 8.6 00:06:59 ? JCPMF ROCOURT
41 4023 DUFRENNE WARREN 00:35:11 8.53 00:07:02 ?
42 4030 SCHMUTZ FABIEN 00:35:25 8.47 00:07:05 ?
43 17 ODEURS LIONEL 00:36:52 8.14 00:07:22 6Garconss 12 � 15 ans 867 LES COREUS D AWANS
44 1712 ZALESKI SARAH 00:36:54 8.13 00:07:23 ?
45 4011 ERNEST BERT 00:37:57 7.91 00:07:35 ?
46 56 ODEURS JEAN-CLAUDE 00:39:12 7.65 00:07:50 ? LES COREUS D AWANS
47 4006 JEANPIERRE CORINE 00:40:30 7.41 00:08:06 ?
Corrida des Remparts 2022
Distance : 5.0 kms
47 coureurs